Location: Codford Saint Peter
(51.1597°N, 2.0531°W)
Time: 05:27:25
(UTC+00:00)

NOSS 3-2 (C) - Pass Details

Date: 18 September 2020
Orbit: 795 x 1418 km, 63.4° (Epoch: 02 October)

Event Time Altitude Azimuth Distance (km) Brightness Sun altitude
Rises 18:41:21 0° 309° (NW) 3,784 7.7 -5.0°
Reaches altitude 10° 18:43:58 10° 316° (NW) 2,918 6.9 -5.4°
Maximum altitude 18:50:42 46° 29° (NNE) 1,571 4.5 -6.4°
Drops below altitude 10° 18:58:25 10° 101° (E) 3,339 5.6 -7.6°
Enters shadow 18:58:45 - 102° (ESE) 3,447 5.6 -7.7°
